| time (UTC) | temp C | wind direction | speed KPH | gust KPH | rain 1hr cm | rain 24hr cm | rain mn cm | humidity % | barometer mb |
| 20260506204542 | 11 | 210 | 3.2 | 12.9 | 0.05 | 0.13 | 0.13 | 91 | 1004.7 |
| 20260506203017 | 11 | 247 | 3.2 | 17.7 | 0.05 | 0.13 | 0.13 | 90 | 1004.8 |
| 20260506201617 | 11 | 167 | 3.2 | 11.3 | 0.08 | 0.10 | 0.10 | 89 | 1004.5 |
| 20260506200031 | 12 | 169 | 3.2 | 12.9 | 0.10 | 0.10 | 0.10 | 88 | 1004.9 |
| 20260506194509 | 12 | 180 | 0.0 | 9.7 | 0.08 | 0.08 | 0.08 | 89 | 1005.0 |
| 20260506193053 | 13 | 253 | 3.2 | 16.1 | 0.08 | 0.08 | 0.08 | 88 | 1005.2 |
| 20260506191526 | 12 | 144 | 0.0 | 8.0 | 0.03 | 0.03 | 0.03 | 88 | 1005.5 |
| 20260506190001 | 12 | 184 | 0.0 | 9.7 | 0.00 | 0.00 | 0.00 | 87 | 1005.4 |
| 20260506184547 | 11 | 189 | 3.2 | 16.1 | 0.00 | 0.00 | 0.00 | 85 | 1005.2 |
| 20260506183024 | 11 | 123 | 4.8 | 19.3 | 0.00 | 0.00 | 0.00 | 84 | 1005.1 |
| 20260506181502 | 11 | 186 | 3.2 | 14.5 | 0.00 | 0.00 | 0.00 | 84 | 1005.3 |
| 20260506180041 | 11 | 223 | 3.2 | 12.9 | 0.00 | 0.00 | 0.00 | 83 | 1005.2 |
| 20260506174519 | 12 | 207 | 0.0 | 14.5 | 0.00 | 0.00 | 0.00 | 83 | 1005.4 |
| 20260506173123 | 12 | 175 | 3.2 | 16.1 | 0.00 | 0.00 | 0.00 | 83 | 1005.5 |
| 20260506171543 | 12 | 213 | 3.2 | 16.1 | 0.00 | 0.00 | 0.00 | 83 | 1005.7 |
| 20260506170016 | 12 | 111 | 0.0 | 9.7 | 0.00 | 0.00 | 0.00 | 82 | 1006.1 |
| 20260506164551 | 13 | 161 | 1.6 | 16.1 | 0.00 | 0.00 | 0.00 | 80 | 1006.3 |
| 20260506163037 | 13 | 126 | 0.0 | 14.5 | 0.00 | 0.00 | 0.00 | 79 | 1006.4 |
| 20260506161504 | 13 | 176 | 3.2 | 14.5 | 0.00 | 0.00 | 0.00 | 80 | 1006.9 |
| 20260506160038 | 13 | 136 | 3.2 | 14.5 | 0.00 | 0.00 | 0.00 | 80 | 1007.0 |
| 20260506154517 | 13 | 217 | 6.4 | 24.1 | 0.00 | 0.00 | 0.00 | 82 | 1007.3 |
| 20260506153052 | 13 | 220 | 1.6 | 9.7 | 0.00 | 0.00 | 0.00 | 83 | 1007.1 |
| 20260506151524 | 12 | 215 | 4.8 | 16.1 | 0.00 | 0.00 | 0.00 | 83 | 1007.3 |
| 20260506150012 | 12 | 219 | 1.6 | 11.3 | 0.00 | 0.00 | 0.00 | 83 | 1007.3 |
| 20260506144550 | 12 | 167 | 1.6 | 11.3 | 0.00 | 0.00 | 0.00 | 83 | 1007.0 |
| 20260506143024 | 13 | 276 | 1.6 | 12.9 | 0.00 | 0.00 | 0.00 | 83 | 1007.1 |
| 20260506141503 | 12 | 198 | 1.6 | 14.5 | 0.00 | 0.00 | 0.00 | 84 | 1007.2 |
| 20260506140050 | 13 | 230 | 3.2 | 11.3 | 0.00 | 0.00 | 0.00 | 84 | 1007.5 |
| 20260506134517 | 12 | 146 | 1.6 | 12.9 | 0.00 | 0.00 | 0.00 | 84 | 1007.4 |
| 20260506133059 | 12 | 197 | 0.0 | 0.0 | 0.00 | 0.00 | 0.00 | 84 | 1007.5 |
| 20260506131540 | 12 | 238 | 3.2 | 11.3 | 0.00 | 0.00 | 0.00 | 84 | 1007.3 |
| 20260506130027 | 12 | 193 | 0.0 | 11.3 | 0.00 | 0.00 | 0.00 | 85 | 1007.3 |
| 20260506124558 | 12 | 146 | 3.2 | 12.9 | 0.00 | 0.00 | 0.00 | 85 | 1007.4 |
| 20260506123032 | 12 | 187 | 0.0 | 3.2 | 0.00 | 0.00 | 0.00 | 85 | 1007.3 |
| 20260506121508 | 12 | 135 | 0.0 | 0.0 | 0.00 | 0.00 | 0.00 | 86 | 1007.6 |
| 20260506120054 | 12 | 150 | 0.0 | 6.4 | 0.00 | 0.00 | 0.00 | 86 | 1007.7 |
| 20260506114523 | 11 | 162 | 0.0 | 9.7 | 0.00 | 0.00 | 0.00 | 87 | 1007.9 |
| 20260506113058 | 11 | 145 | 0.0 | 3.2 | 0.00 | 0.00 | 0.00 | 88 | 1007.9 |
| 20260506111540 | 11 | 169 | 0.0 | 0.0 | 0.00 | 0.00 | 0.00 | 88 | 1007.8 |
| 20260506110021 | 10 | 167 | 0.0 | 0.0 | 0.00 | 0.00 | 0.00 | 89 | 1007.8 |
| 20260506104512 | 10 | 169 | 0.0 | 4.8 | 0.00 | 0.00 | 0.00 | 89 | 1007.9 |
| 20260506103051 | 10 | 148 | 1.6 | 8.0 | 0.00 | 0.00 | 0.00 | 89 | 1007.7 |
| 20260506101539 | 10 | 179 | 0.0 | 8.0 | 0.00 | 0.00 | 0.00 | 90 | 1007.8 |
| 20260506100018 | 9 | 136 | 0.0 | 4.8 | 0.00 | 0.00 | 0.00 | 89 | 1007.6 |
| 20260506094557 | 9 | 159 | 0.0 | 3.2 | 0.00 | 0.00 | 0.00 | 88 | 1007.8 |
| 20260506093058 | 9 | 186 | 0.0 | 1.6 | 0.00 | 0.00 | 0.00 | 88 | 1007.5 |
| 20260506091514 | 10 | 206 | 0.0 | 3.2 | 0.00 | 0.00 | 0.00 | 86 | 1007.7 |
| 20260506090054 | 10 | 196 | 0.0 | 4.8 | 0.00 | 0.00 | 0.00 | 86 | 1007.6 |
| 20260506084522 | 10 | 200 | 0.0 | 8.0 | 0.00 | 0.00 | 0.00 | 86 | 1007.5 |
| 20260506083103 | 10 | 144 | 0.0 | 4.8 | 0.00 | 0.00 | 0.00 | 85 | 1007.4 |
| 20260506081541 | 10 | 171 | 0.0 | 6.4 | 0.00 | 0.00 | 0.00 | 85 | 1007.3 |
| 20260506073036 | 10 | 146 | 0.0 | 0.0 | 0.00 | 0.00 | 0.00 | 85 | 1007.3 |
| 20260506071524 | 10 | 146 | 0.0 | 8.0 | 0.00 | 0.00 | 0.00 | 85 | 1007.0 |
| 20260506061557 | 10 | 181 | 0.0 | 8.0 | 0.00 | 0.00 | 0.00 | 82 | 1006.8 |
| 20260506044510 | 11 | 165 | 0.0 | 8.0 | 0.00 | 0.00 | 0.00 | 81 | 1007.0 |
| 20260506043050 | 11 | 165 | 0.0 | 8.0 | 0.00 | 0.00 | 0.00 | 81 | 1006.9 |
| 20260506041531 | 11 | 221 | 1.6 | 8.0 | 0.00 | 0.00 | 0.00 | 81 | 1006.8 |
| 20260506040020 | 11 | 206 | 0.0 | 8.0 | 0.00 | 0.00 | 0.00 | 81 | 1006.8 |
| 20260506034511 | 11 | 192 | 0.0 | 6.4 | 0.00 | 0.00 | 0.00 | 81 | 1006.8 |
| 20260506033055 | 11 | 194 | 0.0 | 3.2 | 0.00 | 0.00 | 0.00 | 82 | 1006.8 |
| 20260506031543 | 11 | 141 | 0.0 | 6.4 | 0.00 | 0.00 | 0.00 | 81 | 1006.7 |
| 20260506030019 | 11 | 84 | 0.0 | 6.4 | 0.00 | 0.00 | 0.00 | 80 | 1006.8 |
| 20260506024613 | 11 | 180 | 0.0 | 4.8 | 0.00 | 0.00 | 0.00 | 79 | 1006.8 |
| 20260506023051 | 12 | 158 | 0.0 | 4.8 | 0.00 | 0.00 | 0.00 | 78 | 1006.8 |
| 20260506021519 | 12 | 165 | 0.0 | 0.0 | 0.00 | 0.00 | 0.00 | 77 | 1006.8 |
| 20260506020123 | 13 | 229 | 0.0 | 3.2 | 0.00 | 0.00 | 0.00 | 75 | 1006.9 |
| 20260506014534 | 13 | 171 | 0.0 | 0.0 | 0.00 | 0.00 | 0.00 | 73 | 1007.0 |
| 20260506013008 | 13 | 145 | 1.6 | 6.4 | 0.00 | 0.00 | 0.00 | 73 | 1006.9 |
| 20260506011549 | 14 | 152 | 0.0 | 4.8 | 0.00 | 0.00 | 0.00 | 72 | 1006.8 |
| 20260506010029 | 15 | 169 | 0.0 | 8.0 | 0.00 | 0.00 | 0.00 | 69 | 1006.6 |
| 20260506004602 | 16 | 163 | 0.0 | 1.6 | 0.00 | 0.00 | 0.00 | 66 | 1006.5 |
| 20260506003040 | 16 | 158 | 0.0 | 3.2 | 0.00 | 0.00 | 0.00 | 65 | 1006.4 |
| 20260506001529 | 16 | 219 | 0.0 | 6.4 | 0.00 | 0.00 | 0.00 | 63 | 1006.1 |
| 20260506000020 | 17 | 175 | 0.0 | 6.4 | 0.00 | 0.00 | 0.00 | 64 | 1005.4 |
| 20260505234607 | 17 | 171 | 1.6 | 8.0 | 0.00 | 0.00 | 0.00 | 62 | 1005.0 |
| 20260505233030 | 17 | 157 | 0.0 | 4.8 | 0.00 | 0.00 | 0.00 | 61 | 1004.9 |
| 20260505231508 | 17 | 250 | 0.0 | 14.5 | 0.00 | 0.00 | 0.00 | 63 | 1005.4 |
| 20260505230050 | 16 | 277 | 3.2 | 17.7 | 0.00 | 0.00 | 0.00 | 67 | 1005.8 |
| 20260505224524 | 15 | 244 | 4.8 | 22.5 | 0.00 | 0.00 | 0.00 | 66 | 1003.6 |
| 20260505223011 | 15 | 219 | 6.4 | 24.1 | 0.00 | 0.00 | 0.00 | 67 | 1003.4 |
| 20260505221557 | 16 | 232 | 8.0 | 22.5 | 0.00 | 0.00 | 0.00 | 66 | 1003.2 |
| 20260505220026 | 16 | 225 | 9.7 | 27.4 | 0.00 | 0.00 | 0.00 | 65 | 1003.0 |
| 20260505214502 | 16 | 221 | 4.8 | 19.3 | 0.00 | 0.00 | 0.00 | 66 | 1003.0 |
| 20260505213042 | 15 | 167 | 3.2 | 24.1 | 0.00 | 0.00 | 0.00 | 69 | 1003.1 |
| 20260505211543 | 14 | 187 | 8.0 | 22.5 | 0.00 | 0.00 | 0.00 | 70 | 1002.9 |
| 20260505210005 | 15 | 257 | 6.4 | 22.5 | 0.00 | 0.00 | 0.00 | 68 | 1002.9 |